Location: Cluj-Napoca
(46.7712°N, 23.6236°E)
Time: 06:57:30
(UTC+03:00)

ISS - Pass Details

Date: 26 March 2020
Orbit: 417 x 423 km, 51.6° (Epoch: 29 March)

Event Time Altitude Azimuth Distance (km) Brightness Sun altitude
Rises 20:53:19 0° 288° (WNW) 2,361 1.5 -21.4°
Reaches altitude 10° 20:55:31 10° 297° (WNW) 1,498 0.2 -21.7°
Enters shadow 20:58:36 35° 3° (N) 696 -2.5 -22.2°
